This is the latest recevied weather packets stored in our database for station/object IU7URP-13. If no packets are shown the sender has not sent any weather packets the latest 10 day(s).
| Time | Temp. | Humidity | Pressure | Rain* | Wind** | Luminosity | Snow |
|---|---|---|---|---|---|---|---|
| 1777919429 | 18.33° C | 99% | 1020.4 hPa | - | - | - | - |
| 1777918228 | 18.33° C | 99% | 1020.1 hPa | - | - | - | - |
| 1777917026 | 18.89° C | 99% | 1020 hPa | - | - | - | - |
| 1777916622 | 18.89° C | 99% | 1019.8 hPa | - | - | - | - |
| 1777916066 | 19.44° C | 95% | 1019.7 hPa | - | - | - | - |
| 1777914864 | 20.56° C | 81% | 1019.6 hPa | - | - | - | - |
| 1777913663 | 21.67° C | 55% | 1019.4 hPa | - | - | - | - |
| 1777912860 | 22.22° C | 53% | 1019.3 hPa | - | - | - | - |
| 1777911659 | 21.67° C | 56% | 1019.3 hPa | - | - | - | - |
| 1777910458 | 23.89° C | 42% | 1019.4 hPa | - | - | - | - |
| 1777909256 | 24.44° C | 39% | 1019.5 hPa | - | - | - | - |
| 1777908422 | 23.33° C | 42% | 1019.7 hPa | - | - | - | - |
| 1777908160 | 24.44° C | 41% | 1019.7 hPa | - | - | - | - |
| 1777906959 | 24.44° C | 42% | 1019.6 hPa | - | - | - | - |
| 1777905758 | 23.89° C | 42% | 1019.6 hPa | - | - | - | - |
| 1777904556 | 24.44° C | 38% | 1019.6 hPa | - | - | - | - |
| 1777903354 | 23.33° C | 41% | 1019.6 hPa | - | - | - | - |
| 1777902152 | 24.44° C | 40% | 1019.7 hPa | - | - | - | - |
| 1777900951 | 24.44° C | 42% | 1019.8 hPa | - | - | - | - |
| 1777899749 | 24.44° C | 50% | 1019.9 hPa | - | - | - | - |
| 1777898548 | 25° C | 52% | 1020.1 hPa | - | - | - | - |
| 1777897314 | 24.44° C | 78% | 1020.2 hPa | - | - | - | - |
| 1777896859 | 25° C | 61% | 1020.2 hPa | - | - | - | - |
| 1777895722 | 24.44° C | 53% | 1020.2 hPa | - | - | - | - |
| 1777894521 | 23.89° C | 60% | 1020.4 hPa | - | - | - | - |
* Rain since midnight (hover to see other rain measurements)
** Current wind speed in m/s (hover to see current wind gust speed)